Location: Belfast
(54.5830°N, 5.9330°W)
Time: 01:47:59
(UTC+01:00)

ISS - Pass Details

Date: 28 March 2017
Orbit: 399 x 409 km, 51.6° (Epoch: 30 March)

Event Time Altitude Azimuth Distance (km) Brightness Sun altitude
Rises 21:31:07 0° 213° (SSW) 2,307 0.1 -14.3°
Reaches altitude 10° 21:33:37 10° 193° (SSW) 1,454 -1.2 -14.7°
Enters shadow 21:34:36 15° 178° (S) 1,213 -1.7 -14.8°
